Flag for U.S.A. Weather past 2 weeks in Cheyenne, Wyoming, U.S.A.

Now
52 °F

Sunny.


Feels Like: 48 °F
Forecast: 28 / 55 °F
Wind: 13 mph from Northwest

Location: Cheyenne Airport


UV Index: 3 (Moderate)

Visibility: 10 mi


Pressure: 30.00 "Hg

Humidity: 22%

Dew point: 14 °F

Location of CheyenneLocation

Historic Weather in Cheyenne

°F

Cheyenne temperature yesterday

Maximum temperature yesterday: 44 °F (at 4:53 PM)
Minimum temperature yesterday: 33 °F (at 5:53 AM)
Average temperature yesterday: 37 °F

Past Weeks' High & Low Weather Summary

 TemperatureHumidityPressure
High71 °F (Apr 9, 2:53 PM)100% (Apr 17, 7:01 AM)30.43 "Hg (Apr 17, 7:01 AM)
Low12 °F (Apr 14, 5:53 AM)12% (Apr 9, 2:53 PM)29.54 "Hg (Apr 12, 4:53 PM)
Average41 °F55%29.92 "Hg
* Reported Apr 2 11:53 AM — Apr 17 11:53 AM, Cheyenne, Weather by CustomWeather, © 2014

Note: Actual official high and low records may vary slightly from our data, if they occured in-between our weather recording intervals... More about our weather records

Advertising

Historic Weather Conditions — Data for Previous 24 hours

 ConditionsComfort  
Time TempWeatherWind HumidityBarometerVisibility
11:53 AM
Apr 17
52 °FSunny.13 mph22%30.00 "Hg10 mi
10:53 AM49 °FSunny.17 mph25%30.02 "Hg10 mi
9:53 AM44 °FSunny.5 mph55%30.06 "Hg10 mi
8:53 AM34 °FPassing clouds.6 mph88%30.11 "Hg8 mi
7:53 AM30 °FIce fog.7 mph100%30.11 "Hg1 mi
7:01 AM29 °FIce fog.10 mph100%30.07 "Hg1 mi
5:59 AM30 °FIce fog.13 mph96%30.06 "Hg1 mi
4:53 AM30 °FIce fog.13 mph96%30.05 "Hg4 mi
3:53 AM30 °FIce fog.12 mph96%30.06 "Hg5 mi
2:53 AM30 °FPassing clouds.13 mph92%30.07 "Hg10 mi
1:53 AM31 °FPassing clouds.13 mph92%30.09 "Hg10 mi
12:53 AM32 °FMostly cloudy.10 mph88%30.13 "Hg10 mi
11:53 PM
Apr 16
35 °FOvercast.10 mph75%30.07 "Hg10 mi
10:53 PM34 °FMostly cloudy.5 mph85%30.09 "Hg10 mi
9:53 PM34 °FOvercast.9 mph82%30.08 "Hg10 mi
8:53 PM36 °FOvercast.3 mph70%30.09 "Hg10 mi
7:53 PM37 °FSunny.No wind67%30.04 "Hg10 mi
6:53 PM40 °FSunny.13 mph60%29.98 "Hg10 mi
5:53 PM43 °FSunny.18 mph45%29.95 "Hg10 mi
4:53 PM44 °FSunny.16 mph45%29.90 "Hg10 mi
3:53 PM41 °FSunny.18 mph53%29.93 "Hg10 mi
2:53 PM42 °FSunny.15 mph55%29.92 "Hg10 mi
1:53 PM39 °FPassing clouds.15 mph70%29.93 "Hg10 mi
1:01 PM35 °FSnow. Fog.10 mph85%29.96 "Hg1 mi
Weather by CustomWeather, © 2014

See weather overview